User: anonymous   Login
Location: Étavigny
(49.1201°N, 2.9800°E)
Time: 22:48:24
(UTC+00:00)
Language:

NOAA 16 DEB - Orbit

View from above orbital plane
View from above orbital plane
View from above satellite
View from above satellite

Ground track
Ground track

The orbit data is extracted from the following two-line orbital elements,

1 41508U 00055MG  24052.22665823  .00004719  00000-0  21237-2 0  9993
2 41508  98.8305 154.8956 0030576 225.0555 134.8142 14.22516385405667
Epoch (UTC): 21 February 2024 05:26:23
Eccentricity: 0.0030576
inclination: 98.8305°
perigee height: 795 km
apogee height: 839 km
right ascension of ascending node: 154.8956°
argument of perigee: 225.0555°
revolutions per day: 14.22516385
mean anomaly at epoch: 134.8142°
orbit number at epoch: 40566

The dashed part of the orbit path shows where the satellite is in the earth's shadow,  

DLR